Regional Weather Roundup
Issued by NWS

Home | Current Version | Previous Version | Graphics & Text | Print | Product List | Glossary On
Versions: 1 2 3 4 5 6 7 8 9 10 11 12 13 14 15 16 17 18 19 20 21 22 23 24 25 26 27 28 29 30 31 32 33 34 35 36 37 38 39 40 41 42 43 44 45 46 47 48 49 50
000
ASUS45 KPSR 171510
RWRAZ

ARIZONA HOURLY REGIONAL WEATHER ROUNDUP
NATIONAL WEATHER SERVICE PHOENIX AZ
800 AM MST WED JAN 17 2018

NOTE: FAIR INDICATES FEW OR NO CLOUDS BELOW 12,000 FEET WITH NO
SIGNIFICANT WEATHER AND/OR OBSTRUCTIONS TO VISIBILITY.

AZZ001>003-036-171600-
NORTHWEST ARIZONA

CITY           SKY/WX    TMP DP  RH WIND       PRES   REMARKS
BULLHEAD CITY  CLEAR     48  39  71 CALM      30.23R
KINGMAN        CLEAR     37  30  75 E7        30.27R WCI  32
$$

AZZ004>008-015-016-018-171600-
NORTH CENTRAL ARIZONA

CITY           SKY/WX    TMP DP  RH WIND       PRES   REMARKS
GRAND CANYON   CLEAR     20  17  88 CALM      30.35R
WILLIAMS       CLEAR     25  21  86 S8        30.31R WCI  16
PRESCOTT       CLEAR     31  25  78 S6        30.30R WCI  25
FLAGSTAFF      CLEAR     20  17  88 CALM      30.34R
PAYSON         CLEAR     32  16  51 SE5       30.31R WCI  27
PAGE           CLEAR     33  19  56 SW5       30.36R WCI  29
$$

AZZ009>014-017-171600-
NORTHEAST ARIZONA

CITY           SKY/WX    TMP DP  RH WIND       PRES   REMARKS
WINSLOW        PTCLDY    20  10  65 SE3       30.37R
SAINT JOHNS    CLOUDY    26  20  77 S3        30.33R
WINDOW ROCK    CLOUDY    24  19  81 CALM      30.35R
SHOW LOW       CLEAR     28  21  74 CALM      30.36R
$$

AZZ540-542>544-546-548-171600-
GREATER PHOENIX AREA

CITY           SKY/WX    TMP DP  RH WIND       PRES   REMARKS
PHOENIX        PTCLDY    52  25  35 SE7       30.22R
BUCKEYE        CLEAR     50  25  37 E8        30.22R
GLENDALE       PTCLDY    45  32  61 CALM      30.24
LUKE AFB       CLEAR     46  33  59 CALM      30.21R
DEER VALLEY    CLEAR     50  27  40 CALM      30.22R
SCOTTSDALE     CLEAR     49  29  46 CALM      30.23R
MESA-FALCON    PTCLDY    52  19  28 N12       30.23R
MESA-GATEWAY   PTCLDY    48  21  34 E6        30.24R
CHANDLER       CLEAR     48  23  37 NE6       30.23R
$$

AZZ539-553-171600-
SOUTHWEST MARICOPA COUNTY AND PINAL COUNTY

CITY           SKY/WX    TMP DP  RH WIND       PRES   REMARKS
CASA GRANDE    NOT AVBL
GILA BEND      PTCLDY    53  20  27 E17       30.18R
$$

AZZ503-504-507>509-171600-
SOUTHEAST ARIZONA

CITY           SKY/WX    TMP DP  RH WIND       PRES   REMARKS
TUCSON         CLEAR     48  19  31 E26       30.23R
DAVIS-MONTHAN  CLEAR     45  18  33 SE22G29   30.21S
NOGALES        PTCLDY    41  20  43 NE9       30.23R
SIERRA VISTA   CLEAR     31  15  51 CALM      30.30S
DOUGLAS        CLEAR     28  16  60 N10       30.33R WCI  19
SAFFORD        CLEAR     32  13  45 SE10      30.40S WCI  24
$$

AZZ532-171600-
SOUTHWEST ARIZONA

CITY           SKY/WX    TMP DP  RH WIND       PRES   REMARKS
YUMA           PTCLDY    58  36  43 NE12      30.17R
$$

CAZ041-043-047-048-061-525>527-560>570-171600-
SOUTHERN CALIFORNIA

CITY           SKY/WX    TMP DP  RH WIND       PRES   REMARKS
DOWNTOWN L.A.  PTCLDY    53  49  86 CALM      30.15R
L.A. AIRPORT   PTCLDY    56  53  90 VRB3      30.15R
SAN DIEGO      PTCLDY    53  49  86 NW3       30.16R
BURBANK        PTCLDY    50  45  83 CALM      30.15R
ONTARIO        PTCLDY    51  40  65 CALM      30.15R
RIVERSIDE      PTCLDY    50  42  74 NE3       30.16R
PALM SPRINGS   LGT RAIN  56  40  55 NW6       30.20R
EL CENTRO NAS  PTCLDY    49  30  48 W8        30.19R
IMPERIAL       CLEAR     48  32  53 CALM      30.17R
BLYTHE         CLEAR     49  36  61 W3        30.20R
NEEDLES        CLEAR     51  37  58 W8        30.22R
$$

NVZ020-UTZ003-171600-
SOUTHERN NEVADA-UTAH

CITY           SKY/WX    TMP DP  RH WIND       PRES   REMARKS
LAS VEGAS      PTCLDY    47  36  65 SW3       30.27R
SALT LAKE CITY PTCLDY    32  27  81 SE5       30.39R WCI  27
$$

NMZ009-TXZ055-171600-
NEW MEXICO-WEST TEXAS

CITY           SKY/WX    TMP DP  RH WIND       PRES   REMARKS
ALBUQUERQUE    MOCLDY    18  12  77 CALM      30.39S
EL PASO        MOCLDY    24   7  48 NE7       30.43S WCI  16
$$


........................KEY........................
SKY/WX - SKY CONDITION/WEATHER
TMP    - TEMPERATURE IN FAHRENHEIT
DP     - DEW POINT IN FAHRENHEIT
RH     - RELATIVE HUMIDITY IN PERCENT
WIND   - DIRECTION AND SPEED IN MILES PER HOUR (MPH)
VRB    - VARIABLE WIND DIRECTION
PRES   - MEAN SEA LEVEL PRESSURE IN INCHES OF MERCURY
         F - FALLING PRESSURE   R - RISING PRESSURE
         S - STEADY PRESSURE
VSB    - VISIBILITY IN MILES
HX     - HEAT INDEX IN FAHRENHEIT
WCI    - WIND CHILL INDEX IN FAHRENHEIT
TC     - TEMPERATURE IN CELSIUS WHICH IS ALSO KNOWN AS
         TEMPERATURE IN CENTIGRADE
AFB    - AIR FORCE BASE
         LUKE AFB IS LUKE AIR FORCE BASE
         DAVIS-MONTHAN IS DAVIS-MONTHAN AIR FORCE BASE
NAS    - NAVAL AIR STATION
         EL CENTRO NAS IS EL CENTRO NAVAL AIR STATION
N/A    - NOT AVAILABLE




USA.gov is the U.S. government's official web portal to all federal, state and local government web resources and services.